Vertical_Velocity
1 10 10 1 -2 -2 2 3 3 -2 1 1 1 -0 0 2 1 -2 -1 -3 2 2 -0 -3 -2 3 3 -1 2 -3 -2 -2 -3 0 3 3 2 0 4 -0 3 2 -2 -5
3 12 9 1 -1 -1 0 2 1 -0 1 1 0 1 -0 -1 -2 -1 -0 -4 -1 1 -1 -2 -1 -1 -0 5 2 1 2 1 1 -1 1 1 2 1 2 0 -1 4 -2 3
15 12 5 4 0 -1 -1 3 -1 -0 0 0 -0 2 -0 -0 1 -2 -1 -0 -3 2 2 -2 -3 -1 -1 -1 -0 -0 -1 0 -1 1 3 2 -0 -0 -1 -8 -6 9 3 -5
18 4 8 3 8 -3 -1 3 -1 -1 -0 0 -1 0 1 -2 2 -0 -2 -2 -1 -3 -5 -6 -7 1 1 -1 -2 1 2 -0 -1 0 -1 0 1 1 1 1 7 -11 13 -1
14 6 4 10 2 -4 1 1 1 1 -2 -0 0 1 1 -1 1 -2 -0 -4 -0 -3 4 5 3 -1 -1 3 1 -1 1 3 2 1 -1 -2 -3 1 2 2 -2 3 -5 5
15 3 3 3 2 -2 2 -8 -0 1 -2 0 -0 -2 1 -0 -0 1 -2 -3 -0 -1 -2 -2 -5 -0 3 1 -3 2 -1 -2 3 0 1 -1 2 -0 0 1 -1 2 2 5
12 5 5 3 -1 -0 0 -7 0 -1 1 -1 -1 -2 1 -2 0 -0 -3 -3 -1 0 -2 -3 -2 -1 -2 -2 2 -5 -2 2 -3 -0 -2 -4 2 -1 -0 2 -1 -2 5 3
11 8 -0 5 -1 3 -1 -3 -0 -1 0 -0 -1 -1 1 -2 1 -1 -2 -3 -1 -4 -1 -2 -1 7 7 1 -3 -4 3 -3 -2 -4 -3 -2 3 4 -1 -1 2 1 -2 -0
-2 8 3 6 3 1 -0 -2 -5 -1 -1 -0 -1 -1 -0 -2 -0 -0 -1 -3 -4 -3 -2 -3 -1 -7 -5 -10 2 3 4 2 0 -2 1 -2 -3 6 -1 -1 -12 5 -2 -2
8 7 5 5 8 -1 1 1 -1 -0 -1 -1 -0 -1 -0 1 2 -2 0 -4 -6 -5 -1 -3 -4 -3 -3 -1 4 3 -2 -5 -3 -2 -7 -2 -4 2 -0 -5 -3 3 3 -3
6 2 4 13 2 4 -1 -2 -1 -2 -0 0 -0 -1 -1 -1 2 -1 1 -1 -5 -5 -4 -5 -1 -5 -2 -2 0 -4 0 1 0 -3 -7 -5 -1 -3 -5 -3 -3 2 -2 -1
6 3 12 12 5 -1 -1 -0 -0 0 0 -1 -2 -0 0 -1 1 -1 -1 -0 -4 -2 -6 -7 -4 -2 -6 -4 -3 2 -2 2 3 -5 7 5 -1 5 4 1 2 0 1 0
11 13 3 3 5 -2 -2 -1 0 0 -3 -1 -1 -1 -1 -1 -0 2 -1 -1 -0 -4 -4 -7 -5 -4 -4 -3 -3 -0 -3 2 -5 -3 2 1 -0 -2 6 -1 2 3 5 2
10 9 4 6 4 -2 -1 -1 1 0 -1 -2 -1 -1 -2 1 -0 -0 -1 -0 -2 -4 -5 -6 -6 -5 -1 -2 -3 -1 -5 1 -1 8 2 3 -2 -4 13 3 -1 1 1 0
8 8 9 5 2 -0 1 0 1 -1 -0 -2 -1 -1 -2 -1 -0 0 -0 -1 -1 -2 -3 -5 -6 -5 -4 -0 -0 -0 -1 -0 -6 -9 -1 4 -3 -3 -3 -1 4 6 6 4
4 5 10 4 6 -1 0 -2 -2 -1 -1 -0 -0 -1 -1 -1 -1 1 -1 0 -2 -1 -2 -4 -4 -5 -7 -4 -5 -3 -1 -3 -4 -5 3 -0 -7 -1 -6 -1 -0 -3 1 -3
-2 9 15 8 8 3 -1 1 -2 -0 -1 -0 -1 -1 -1 1 -0 -1 -2 -3 -2 -0 -3 -3 -3 -4 -7 -6 -5 -4 -7 -9 -4 -3 -3 1 9 5 0 0 -3 -0 -0 -2
3 9 11 5 5 1 -2 -3 -1 -1 -0 -1 0 -2 0 -0 -1 -2 -1 -2 -3 -0 -1 -1 -0 -2 -4 -6 -6 -5 -6 -2 -0 -0 -5 -3 0 -4 -6 4 1 -2 -2 2
6 1 8 7 0 2 -1 -3 -1 -1 -1 -1 -1 -1 -1 -1 -2 -1 -1 -1 -2 -1 -0 -1 -3 -3 -4 -4 -5 -6 -6 -6 -7 -4 -1 2 -2 -5 -4 1 2 5 2 -2
1 1 5 -2 -1 1 1 -1 -2 -2 -0 -1 -0 -1 -1 0 0 0 2 -1 -3 -2 -1 -1 -1 -1 -2 -2 -3 -4 -4 -2 -1 1 -6 -4 -7 -2 0 8 5 3 6 6
3 3 6 9 8 1 -1 -2 -2 -1 0 -1 -1 -2 -1 -3 0 2 0 -3 -4 -1 -0 -1 -0 -1 -2 -2 -2 -2 -3 -3 -4 -2 -2 -2 3 0 -4 -6 -2 5 -1 3
10 7 3 3 -0 3 -2 0 -1 0 -1 -1 -1 -1 -2 -1 -0 -0 -2 -0 -1 0 1 -1 -0 -1 -1 -0 -1 -3 -4 -3 -3 -1 0 -2 -6 -2 -1 -3 -9 -3 2 4
9 -1 -1 5 2 -1 -0 5 1 -1 -1 -1 -1 -2 -2 -2 -1 -1 -1 -0 -1 -1 1 -1 -0 -1 -1 -1 -2 -3 -2 -2 -5 -1 -3 -1 -3 -2 0 -1 -4 1 1 1
1 3 2 -3 -3 1 9 2 -3 -2 -1 -2 -1 -0 -1 -1 -0 -2 -0 -2 -2 1 1 -0 0 0 -1 -1 -1 -2 -3 -2 -3 -2 -1 -0 0 -1 -1 1 -4 -7 6 2
1 3 -2 -2 3 6 7 1 -2 1 1 -2 -3 -1 -2 -2 -1 0 2 -2 -1 4 -2 1 1 -0 -1 -0 0 -1 -2 -1 -3 -3 -3 -1 0 -2 -3 2 -0 -4 -4 5
-3 -1 1 -0 -1 4 3 2 1 0 -2 -3 -3 -1 -2 -1 -3 3 -0 1 1 -1 -2 0 2 1 0 -1 -1 -1 -2 -1 -2 -2 -0 -3 -4 -2 -2 -4 1 -5 -4 -1
0 -1 1 2 2 -1 1 3 1 1 -2 -2 -3 -1 -2 -0 -2 2 0 -1 1 1 -1 -2 -1 -2 -1 0 -1 -2 -1 -0 -1 -1 -3 -2 -2 -0 -2 -3 -1 -1 -5 -3
Height
5646 5652 5658 5663 5668 5671 5675 5676 5676 5674 5672 5669 5664 5659 5653 5645 5637 5629 5625 5626 5627 5628 5629 5631 5632 5633 5635 5636 5638 5639 5640 5643 5645 5648 5651 5653 5656 5660 5663 5666 5672 5675 5678 5681
5635 5643 5649 5655 5660 5665 5668 5670 5671 5670 5668 5666 5662 5659 5654 5647 5638 5630 5624 5623 5625 5626 5628 5630 5632 5634 5636 5637 5638 5639 5640 5642 5644 5646 5650 5651 5655 5658 5660 5663 5666 5671 5675 5679
5627 5634 5641 5648 5653 5658 5663 5666 5667 5667 5665 5664 5661 5657 5653 5647 5639 5633 5627 5623 5622 5623 5625 5627 5629 5632 5633 5635 5637 5638 5640 5641 5643 5646 5649 5651 5653 5655 5657 5659 5662 5668 5672 5673
5618 5626 5634 5640 5645 5652 5657 5661 5662 5663 5662 5661 5659 5656 5652 5647 5641 5634 5629 5625 5621 5621 5622 5624 5627 5628 5631 5633 5635 5637 5639 5641 5642 5644 5646 5648 5650 5651 5654 5655 5662 5661 5668 5669
5610 5619 5626 5633 5639 5645 5652 5656 5658 5659 5659 5658 5657 5654 5652 5648 5642 5637 5632 5626 5620 5618 5619 5622 5624 5627 5628 5631 5632 5633 5635 5638 5639 5641 5642 5644 5646 5648 5650 5654 5657 5657 5661 5663
5603 5612 5621 5628 5633 5641 5645 5650 5653 5654 5655 5655 5654 5653 5651 5647 5642 5638 5633 5627 5621 5618 5618 5618 5620 5622 5623 5626 5628 5630 5632 5633 5635 5637 5639 5641 5644 5646 5647 5649 5652 5653 5656 5659
5597 5606 5615 5622 5629 5635 5641 5645 5648 5650 5651 5651 5652 5650 5649 5647 5643 5638 5633 5628 5623 5619 5615 5615 5616 5618 5620 5621 5624 5625 5627 5629 5631 5633 5635 5638 5639 5641 5642 5644 5646 5646 5647 5649
5593 5602 5609 5617 5623 5629 5635 5640 5644 5646 5647 5648 5648 5648 5647 5645 5643 5638 5634 5630 5625 5618 5615 5613 5611 5612 5615 5617 5619 5621 5623 5624 5626 5628 5630 5633 5634 5636 5638 5638 5639 5640 5641 5642
5587 5597 5605 5612 5618 5624 5630 5635 5639 5641 5643 5645 5645 5645 5645 5644 5642 5638 5634 5630 5625 5620 5616 5613 5610 5609 5609 5612 5614 5617 5617 5619 5622 5623 5624 5625 5627 5629 5630 5631 5632 5635 5635 5635
5584 5592 5600 5607 5614 5619 5625 5630 5634 5637 5639 5641 5642 5642 5642 5642 5640 5637 5633 5630 5627 5623 5618 5613 5608 5606 5607 5607 5609 5612 5613 5614 5617 5618 5619 5621 5622 5625 5624 5626 5630 5628 5629 5629
5579 5588 5595 5603 5609 5615 5620 5625 5629 5633 5635 5637 5638 5638 5639 5639 5638 5636 5634 5631 5627 5623 5619 5614 5609 5605 5604 5604 5604 5606 5607 5609 5611 5613 5614 5617 5619 5620 5621 5621 5621 5622 5621 5622
5574 5583 5592 5599 5605 5611 5616 5621 5625 5629 5631 5633 5635 5635 5636 5637 5636 5635 5632 5631 5627 5622 5620 5616 5611 5606 5603 5601 5601 5602 5603 5605 5606 5608 5609 5609 5610 5611 5612 5613 5613 5613 5613 5613
5570 5580 5588 5596 5602 5607 5612 5617 5621 5624 5627 5630 5631 5632 5633 5634 5634 5632 5631 5629 5626 5623 5621 5618 5613 5608 5602 5600 5599 5599 5597 5597 5599 5599 5599 5601 5600 5600 5602 5602 5603 5604 5605 5605
5566 5576 5584 5593 5599 5603 5609 5614 5617 5620 5623 5625 5628 5629 5630 5630 5630 5630 5629 5626 5624 5622 5619 5617 5614 5608 5603 5599 5598 5594 5594 5591 5591 5592 5592 5591 5589 5592 5595 5595 5595 5596 5597 5597
5562 5572 5581 5589 5595 5600 5606 5610 5613 5616 5620 5622 5623 5626 5627 5627 5627 5627 5626 5624 5622 5620 5617 5615 5614 5609 5605 5600 5596 5592 5588 5587 5587 5585 5587 5586 5586 5587 5588 5589 5589 5588 5589 5588
5559 5568 5578 5586 5592 5597 5602 5607 5611 5613 5615 5618 5620 5622 5623 5623 5623 5623 5623 5622 5620 5618 5615 5612 5610 5609 5607 5602 5597 5593 5587 5584 5582 5581 5581 5580 5578 5577 5577 5579 5578 5578 5579 5578
5557 5566 5575 5581 5587 5594 5599 5604 5607 5609 5612 5614 5616 5617 5618 5619 5619 5620 5620 5620 5618 5615 5613 5610 5608 5606 5606 5602 5597 5593 5588 5583 5580 5578 5578 5574 5572 5571 5569 5567 5566 5565 5566 5567
5554 5563 5571 5578 5584 5590 5595 5599 5602 5605 5608 5611 5612 5614 5614 5615 5615 5616 5616 5616 5614 5613 5610 5608 5605 5602 5601 5599 5596 5591 5587 5583 5578 5574 5572 5570 5567 5564 5563 5560 5558 5555 5553 5555
5551 5559 5566 5572 5580 5585 5591 5595 5598 5601 5606 5606 5607 5609 5611 5611 5611 5611 5612 5612 5611 5609 5606 5603 5602 5600 5596 5594 5591 5588 5584 5580 5576 5571 5566 5562 5559 5557 5554 5552 5550 5549 5548 5547
5547 5557 5564 5570 5576 5581 5588 5590 5595 5599 5601 5601 5602 5604 5606 5607 5606 5606 5607 5606 5606 5604 5602 5599 5597 5595 5592 5589 5586 5583 5580 5576 5573 5567 5561 5557 5552 5549 5547 5544 5541 5540 5539 5539
5545 5553 5560 5566 5571 5577 5583 5587 5591 5595 5598 5598 5599 5600 5601 5602 5601 5600 5600 5599 5599 5599 5597 5595 5592 5590 5587 5584 5581 5578 5575 5571 5567 5563 5558 5552 5547 5541 5537 5535 5533 5532 5531 5529
5543 5549 5555 5561 5568 5574 5579 5583 5587 5591 5593 5593 5594 5595 5595 5595 5595 5595 5594 5594 5593 5593 5590 5589 5586 5584 5581 5578 5575 5572 5568 5565 5561 5557 5552 5547 5542 5536 5531 5527 5526 5524 5522 5521
5538 5544 5551 5558 5565 5570 5576 5579 5584 5587 5587 5587 5588 5589 5589 5589 5589 5589 5589 5588 5588 5586 5584 5582 5581 5577 5574 5571 5568 5565 5562 5558 5555 5550 5545 5540 5535 5530 5525 5520 5519 5516 5514 5512
5534 5542 5548 5553 5560 5567 5572 5575 5579 5581 5581 5582 5583 5582 5583 5582 5582 5583 5582 5581 5581 5579 5578 5576 5573 5570 5568 5565 5561 5558 5555 5551 5547 5543 5538 5533 5528 5523 5517 5513 5510 5509 5507 5505
5531 5538 5543 5550 5559 5564 5566 5570 5573 5575 5575 5576 5576 5576 5578 5576 5575 5576 5575 5575 5573 5572 5570 5568 5565 5563 5560 5557 5554 5550 5547 5543 5538 5534 5530 5526 5520 5515 5509 5504 5501 5500 5498 5496
5527 5532 5539 5547 5554 5558 5561 5564 5566 5568 5569 5570 5571 5570 5570 5568 5568 5568 5568 5568 5567 5564 5562 5560 5557 5554 5551 5549 5546 5542 5538 5534 5530 5525 5521 5516 5512 5507 5501 5496 5491 5489 5487 5486
5521 5528 5534 5543 5548 5552 5555 5557 5560 5561 5562 5563 5563 5563 5562 5561 5560 5560 5560 5559 5559 5557 5554 5551 5548 5545 5542 5540 5537 5533 5529 5525 5521 5517 5512 5508 5503 5498 5493 5487 5482 5479 5477 5475